Dewpoint
74 74 73 72 72 73 73 73 74 73 72 72 71 71 72 73 73 72 73 73 73 73 74 73 73 72 72 72 72 72 72 73 73 72 73 73 73 73 74 75 76 76 76 75 74 73 74 74 74 73 73 73 73 73 73 73 73 73 73 73 73 73 73 73 73 73 73 73 73 72 72 72 73 73 73 73 73 72 72 72 72 72 73 73 73
73 73 73 72 73 72 73 73 73 73 73 72 72 72 72 72 73 73 73 74 73 72 73 72 72 74 72 72 72 72 72 72 72 73 73 73 72 73 74 75 76 76 76 76 74 74 74 74 74 74 74 73 73 73 73 73 73 73 73 73 73 73 73 73 73 74 73 73 73 73 73 73 73 73 74 74 73 73 73 73 73 73 73 73 73
73 73 72 72 73 72 73 73 73 73 73 72 74 73 73 73 73 73 72 72 71 71 72 71 71 71 72 72 72 72 71 72 72 73 73 73 73 74 74 76 76 76 76 76 75 74 74 74 74 75 74 74 74 74 74 74 74 74 73 73 73 73 73 73 73 74 74 73 74 73 73 73 73 73 74 74 74 74 74 74 73 74 74 74 74
74 74 72 73 73 73 73 73 73 73 74 73 72 74 74 73 73 72 72 72 71 71 71 71 70 71 70 72 72 72 71 71 71 71 72 72 72 71 72 74 76 77 77 76 75 76 74 75 74 75 75 74 74 74 74 74 74 74 74 74 74 73 73 73 73 74 73 74 74 74 74 74 74 74 74 74 74 74 74 74 74 74 74 74 74
75 75 75 73 72 73 73 74 73 73 73 74 74 72 71 71 71 73 72 72 71 71 72 72 71 71 71 71 72 72 72 72 72 71 71 72 72 72 72 72 74 77 77 76 76 76 76 75 75 75 75 75 74 74 74 74 74 74 74 74 74 73 73 73 73 73 74 74 74 74 74 74 74 74 74 74 74 74 74 74 74 74 74 74 74
75 75 74 74 73 73 73 73 73 74 74 73 72 72 72 71 70 70 73 72 71 70 70 71 71 71 71 71 71 71 71 71 71 72 71 72 72 73 73 73 73 74 76 77 76 76 76 75 75 75 75 75 75 75 74 74 74 74 74 74 74 74 73 74 74 74 74 74 74 74 74 74 74 74 74 74 74 74 74 74 74 74 74 75 74
76 76 75 74 73 73 73 73 73 74 72 73 73 73 73 71 71 69 69 70 69 70 69 68 69 70 70 71 70 71 72 71 71 71 70 70 72 72 73 73 73 74 74 75 76 76 76 76 75 75 76 76 76 75 75 74 74 74 75 74 74 74 74 74 74 74 74 74 74 74 74 74 74 75 75 75 75 75 75 75 75 75 75 75 75
76 76 75 74 74 73 73 73 73 73 73 72 72 72 72 71 71 71 69 69 69 69 70 69 69 69 69 69 69 70 70 72 72 71 70 70 71 71 72 73 73 73 75 74 74 75 76 76 76 76 76 76 76 76 76 75 75 74 75 75 75 74 75 75 75 75 75 74 74 74 74 74 74 74 75 75 75 75 75 75 75 75 75 75 75
75 75 75 74 73 73 73 73 74 73 72 72 71 72 71 70 70 71 70 69 70 69 68 68 68 68 69 68 66 66 68 70 70 70 71 70 70 71 72 73 73 75 73 74 74 74 75 76 77 76 76 76 76 76 76 76 75 75 75 75 75 75 75 75 75 75 75 75 75 75 75 75 75 75 75 75 75 75 76 75 75 75 76 76 76
73 74 73 74 73 72 72 73 73 73 72 71 71 72 72 71 70 70 71 69 68 68 67 68 68 68 68 67 67 66 64 65 67 71 70 70 70 70 71 72 74 73 73 72 73 74 74 75 77 77 77 76 76 76 76 76 75 75 75 75 75 75 75 75 75 75 75 75 75 75 75 75 75 75 75 76 75 76 76 76 76 76 76 76 76
73 74 73 73 73 73 72 71 71 71 70 70 69 70 70 70 69 69 70 69 69 69 69 68 69 68 68 67 67 67 67 67 69 71 71 70 69 70 70 71 73 73 72 72 71 72 72 73 75 76 76 77 77 76 76 76 76 75 75 75 75 75 75 75 75 75 75 75 75 75 75 75 75 75 76 76 76 76 76 76 76 76 76 76 76
74 73 73 73 71 71 70 71 71 70 69 68 68 68 68 68 69 68 68 69 69 69 68 68 67 67 67 67 67 67 67 67 66 65 67 70 70 69 69 70 71 72 72 72 71 71 71 72 74 75 76 76 77 77 77 76 76 76 76 76 75 75 75 75 75 75 75 75 75 75 75 75 75 75 75 76 75 75 75 75 76 76 76 76 76
74 73 72 73 72 71 70 70 70 70 69 69 69 69 69 68 68 69 69 67 66 66 67 67 66 65 66 66 66 67 67 67 66 65 63 63 67 69 69 69 70 70 71 72 72 72 71 72 72 73 75 75 75 77 77 76 76 76 76 76 76 76 75 76 75 75 75 75 75 75 75 75 75 75 75 75 75 75 75 75 75 75 75 76 76
74 73 73 72 72 71 71 70 70 69 69 70 69 70 69 68 68 66 67 66 66 67 67 67 65 64 64 64 64 65 66 67 66 66 65 64 63 64 67 68 68 69 70 70 70 71 71 72 72 72 73 74 75 75 76 76 75 76 76 76 76 76 76 76 76 76 76 75 76 75 75 75 74 75 75 75 75 75 75 75 75 75 75 75 75
74 74 74 73 73 72 72 71 71 71 70 69 69 69 69 68 68 67 67 67 67 67 67 67 64 65 64 63 62 61 63 66 68 68 67 66 65 65 67 68 69 71 70 71 70 70 71 71 71 72 72 72 74 75 75 76 76 77 76 75 75 76 76 76 76 76 76 76 76 76 75 75 75 75 75 75 75 75 75 75 75 75 75 75 75
74 74 74 73 72 72 71 71 71 72 71 70 69 69 68 69 68 68 67 66 66 66 69 68 66 64 62 61 62 61 60 61 63 64 65 66 67 67 68 68 69 69 70 70 70 70 70 72 71 71 72 72 72 73 73 75 76 77 76 76 75 75 76 76 76 76 76 76 76 76 75 75 75 75 75 75 75 75 75 75 75 75 74 75 75
69 70 71 69 71 71 71 71 70 71 71 71 70 69 69 69 68 67 67 66 65 66 68 68 68 67 63 62 61 59 59 61 63 63 64 65 66 67 70 68 69 69 70 70 71 71 71 71 71 71 71 72 72 72 72 73 74 75 75 76 75 75 75 76 76 76 76 76 76 76 75 75 75 75 75 75 75 75 75 75 75 75 75 74 75
68 70 70 71 70 70 70 69 70 70 71 70 71 70 69 68 67 66 66 67 66 65 65 66 68 69 66 65 64 61 61 62 62 60 64 64 64 65 69 69 69 69 69 70 70 70 71 70 71 71 71 71 72 71 72 72 73 73 74 74 76 76 75 75 76 75 76 76 76 76 76 75 75 75 75 76 76 75 75 75 75 75 75 74 75
69 68 70 70 70 70 69 69 69 69 71 69 69 69 68 67 68 68 68 68 67 64 65 65 67 67 67 68 67 67 66 63 61 61 60 62 67 65 64 65 68 70 69 69 69 70 70 70 71 71 72 72 72 71 71 72 73 74 74 75 74 75 75 75 75 76 75 75 76 76 76 76 75 74 74 75 76 76 75 75 75 75 74 74 74
67 69 69 69 69 69 67 68 69 69 68 67 68 70 69 69 69 69 68 69 67 66 66 66 64 65 67 66 66 67 66 66 65 63 62 61 62 64 64 64 66 68 69 69 69 69 69 68 69 71 71 71 71 71 71 71 72 72 73 73 73 73 74 73 75 75 76 76 75 76 76 76 76 75 74 74 75 76 75 75 75 75 75 75 75
69 67 68 68 70 68 67 68 67 67 68 67 66 67 67 68 68 69 68 68 68 68 66 65 64 64 65 64 65 65 66 65 65 65 62 61 61 61 61 63 63 63 64 69 70 70 70 70 70 71 71 71 71 71 71 72 72 72 73 73 73 73 74 73 73 74 75 76 76 76 76 76 76 76 76 75 75 76 76 75 75 75 75 75 75
67 69 67 68 68 69 68 67 66 68 68 67 66 65 65 65 67 67 67 67 68 68 67 66 66 66 65 65 64 64 63 63 63 62 63 63 61 61 62 61 61 62 63 62 63 69 71 71 71 71 71 71 71 70 70 71 72 72 72 73 72 73 73 73 73 74 74 75 75 76 75 76 76 76 76 76 76 76 76 76 76 76 76 76 75
68 68 68 67 68 69 67 67 68 69 68 66 65 65 65 65 66 66 66 66 66 67 67 67 66 66 65 65 64 63 63 61 61 62 62 62 61 61 61 62 62 62 63 63 64 65 66 71 71 70 71 72 71 71 71 70 71 72 73 73 72 72 72 73 73 73 72 73 75 75 76 76 76 76 76 76 76 76 76 76 77 76 76 76 76
67 65 65 67 70 67 68 67 68 66 67 66 66 66 66 66 66 65 65 65 66 66 65 65 66 65 65 65 64 64 63 62 63 63 63 63 62 61 61 62 62 62 62 63 63 63 64 65 70 71 71 71 71 71 71 72 72 73 72 72 71 71 71 72 72 72 72 72 72 74 75 75 76 76 76 76 76 76 77 76 76 77 76 76 75
66 67 67 68 68 66 67 66 68 68 67 66 66 66 65 65 65 65 65 65 64 65 64 64 65 64 64 65 64 63 63 64 64 63 63 63 62 61 61 62 61 61 61 62 62 63 64 64 68 71 71 71 71 71 71 71 71 72 73 73 71 71 70 71 71 71 71 71 71 73 73 73 74 74 75 76 76 76 76 77 77 76 76 76 75
66 67 66 66 67 68 68 67 67 67 67 66 66 66 66 65 65 64 64 64 65 65 64 65 64 64 64 63 63 63 63 63 63 63 63 62 61 61 61 61 61 61 61 61 62 61 62 65 67 69 71 71 70 70 70 70 71 72 73 72 71 70 70 70 70 70 70 70 70 71 72 73 73 73 74 74 75 75 76 76 76 77 76 75 75
66 66 67 66 67 67 67 67 67 66 67 66 68 66 66 66 66 65 66 65 65 65 65 65 64 64 64 63 64 63 63 63 63 63 63 63 62 62 62 60 60 60 59 60 60 60 60 61 63 64 68 70 70 70 70 70 70 72 72 72 71 71 70 70 70 70 69 69 70 70 70 71 72 73 73 73 74 75 75 75 75 75 75 75 74
67 66 66 66 67 66 66 66 66 66 66 65 65 66 65 65 65 65 65 68 64 64 64 64 64 63 63 63 63 63 63 63 63 63 63 63 63 63 62 61 60 57 58 58 58 58 60 60 61 63 64 66 69 70 71 71 70 71 72 71 71 71 70 69 69 69 69 69 69 69 69 70 70 71 72 72 72 72 73 74 74 74 74 74 74
65 67 67 66 64 65 64 65 66 66 66 65 66 66 65 65 65 64 64 65 65 63 64 63 63 63 63 63 62 63 62 63 62 63 62 62 62 62 62 62 61 59 57 57 57 57 59 59 59 60 63 66 68 68 69 69 70 71 70 70 70 70 70 69 68 68 68 68 68 68 69 69 69 70 70 71 70 71 72 72 72 73 73 73 73
66 66 64 63 65 69 66 66 66 66 65 65 65 64 65 64 65 65 65 65 64 64 65 64 64 64 64 63 62 62 62 62 62 62 62 61 61 61 61 61 61 60 59 57 57 58 58 60 60 60 62 62 63 64 66 68 70 70 70 70 71 71 69 69 68 68 68 68 68 68 68 69 69 69 69 69 69 70 70 71 71 71 72 72 73
64 64 65 65 65 65 65 65 64 65 66 66 66 65 65 64 65 65 66 65 64 63 64 65 65 64 63 62 62 62 62 61 61 61 61 61 60 60 60 60 60 60 60 59 56 57 59 58 59 60 60 61 62 62 65 67 69 70 70 70 71 71 70 70 68 68 68 67 67 67 67 67 67 68 67 68 68 69 69 70 70 70 71 71 72
66 65 64 63 65 64 63 63 62 63 63 64 64 64 64 64 64 65 65 66 65 64 64 65 65 63 62 62 62 61 62 61 61 61 60 60 60 59 59 59 58 59 60 59 57 56 58 58 58 59 59 60 62 62 62 63 64 67 69 70 70 71 72 71 69 68 67 67 67 66 66 65 66 66 67 67 67 68 69 69 69 69 69 70 70
64 63 63 64 64 63 64 64 63 63 64 64 65 65 64 64 65 65 65 65 64 64 65 65 64 63 62 62 61 61 62 61 60 60 60 59 59 58 58 58 58 59 59 59 57 56 56 58 57 57 58 60 60 62 62 62 63 63 65 67 71 71 71 72 71 69 67 66 66 66 65 65 65 66 66 66 67 67 68 69 68 68 68 68 69
64 62 62 63 64 64 63 63 64 65 64 64 64 64 64 64 64 65 64 64 63 63 63 63 64 63 62 61 61 61 61 60 60 59 59 58 58 57 57 58 57 58 59 58 58 57 55 56 56 57 57 59 59 61 62 63 63 64 64 65 68 71 72 72 71 71 69 67 65 64 65 65 65 65 65 66 66 66 67 67 67 67 67 67 67
64 63 63 63 64 64 63 63 63 63 64 63 65 65 64 64 63 64 64 64 64 63 63 63 63 62 61 62 60 60 61 59 59 59 59 58 58 57 57 58 58 58 59 59 58 56 56 55 56 56 56 57 58 59 61 62 63 64 63 64 66 70 71 72 71 71 69 67 65 64 64 64 65 65 65 65 65 65 65 65 65 66 66 66 66
62 65 64 64 64 64 63 64 63 63 64 64 64 65 64 64 63 63 63 63 63 63 63 63 62 62 61 60 60 60 60 59 58 58 58 58 58 58 57 58 58 58 58 58 58 57 57 55 55 56 56 57 57 59 61 63 63 63 63 63 64 66 69 71 71 71 70 67 66 65 64 64 64 64 64 64 64 64 63 64 64 64 64 64 64
61 63 64 65 64 64 63 62 63 63 63 64 64 65 65 65 64 64 64 63 63 63 63 63 64 62 61 60 59 59 60 58 59 58 58 57 58 58 58 58 58 58 58 58 58 58 57 56 55 56 57 57 58 59 61 62 63 64 64 64 63 64 66 69 70 70 69 67 67 66 65 64 64 64 64 64 63 63 63 62 62 63 63 63 63
63 63 61 62 63 62 62 63 63 63 63 63 64 65 65 65 65 65 64 64 64 64 63 63 62 62 61 60 60 59 59 58 58 58 58 58 58 58 58 58 58 58 58 57 57 57 56 56 56 56 56 56 57 58 60 62 63 63 64 64 64 65 66 68 69 70 70 70 69 69 66 66 65 64 64 64 63 63 62 62 62 61 61 61 60
60 59 60 60 61 61 63 64 63 63 63 63 63 64 65 65 65 64 64 64 64 64 64 63 62 61 60 59 60 59 59 58 58 58 58 58 59 58 59 58 59 58 58 57 57 56 56 55 55 56 56 56 57 57 59 61 63 63 62 63 64 65 66 67 68 69 70 70 69 68 68 67 66 66 64 63 63 63 63 62 61 60 60 59 59
60 60 60 60 60 62 62 60 60 61 60 60 61 64 65 65 65 65 65 64 64 64 63 63 62 61 60 59 59 59 59 59 58 58 58 58 58 58 58 59 59 58 58 58 57 56 55 55 55 55 56 56 57 57 59 60 62 62 63 63 63 63 65 67 67 67 68 69 69 70 68 67 66 65 64 63 63 63 62 62 62 62 61 60 59
63 61 61 61 61 61 61 61 60 61 63 63 63 65 66 66 66 65 65 64 64 63 62 61 61 61 60 60 59 58 60 62 60 59 58 58 58 57 58 58 59 58 58 58 57 55 55 55 55 55 56 56 56 56 57 59 60 61 62 63 63 63 64 65 68 69 68 68 68 69 69 70 69 69 68 67 67 65 64 64 64 64 62 60 59
62 64 63 62 62 61 59 60 62 63 60 63 65 66 66 66 66 66 65 64 63 62 62 61 61 61 60 59 61 64 61 60 60 59 58 57 57 58 58 58 58 58 58 57 56 54 54 54 54 54 55 54 55 55 56 57 59 60 61 62 61 62 63 64 65 68 69 68 68 68 68 70 70 69 69 68 68 67 66 65 65 65 64 61 61
63 63 63 62 60 59 59 59 58 59 61 64 64 61 62 65 65 64 64 63 63 62 62 62 61 60 59 59 59 61 62 62 63 61 60 59 59 58 57 57 57 58 57 56 55 54 54 53 53 54 54 54 55 55 55 56 58 58 59 62 63 63 62 62 62 65 70 70 68 68 68 69 70 69 69 69 69 68 67 67 65 65 63 62 61
64 64 63 62 61 61 61 59 59 60 63 64 60 60 61 61 63 63 63 63 63 62 61 61 60 60 59 59 59 60 60 60 61 61 60 60 59 58 58 57 57 57 57 57 56 54 53 53 53 54 54 54 54 55 55 56 56 57 58 60 62 62 62 62 62 62 66 70 69 68 68 69 71 70 69 70 70 69 69 66 64 64 63 62 62
64 63 63 63 62 62 62 61 61 60 60 61 60 59 59 60 60 61 61 62 62 62 61 61 61 60 59 59 60 61 61 62 63 61 60 61 59 58 57 57 57 57 57 56 55 56 54 55 55 55 55 55 55 55 56 56 57 57 58 59 60 62 62 62 62 63 66 70 69 68 67 68 70 70 70 70 70 70 70 66 65 64 63 62 62
63 63 63 61 61 60 60 59 61 62 61 61 59 58 58 58 59 61 61 61 61 61 61 61 61 60 59 60 60 59 59 61 61 60 60 59 60 61 61 60 60 59 56 55 54 54 56 56 56 56 56 57 56 56 57 57 57 57 57 57 59 61 62 62 63 63 65 70 68 68 67 68 69 69 69 69 71 71 70 68 64 63 63 62 62
62 62 62 62 61 61 62 63 62 63 63 60 58 57 56 56 57 60 60 61 61 61 62 62 62 61 60 61 59 59 59 59 59 60 59 59 60 60 59 59 60 59 57 55 54 54 56 56 57 57 57 58 58 58 58 57 57 56 57 57 58 60 62 64 64 64 65 70 69 68 65 67 69 69 68 69 69 70 71 67 64 63 63 62 62
64 63 61 61 60 60 61 62 61 60 61 58 56 56 55 55 57 60 60 60 60 60 61 62 62 61 61 60 59 59 59 59 58 57 58 59 58 58 59 59 59 58 56 55 54 55 57 58 58 58 57 57 56 57 58 58 58 57 57 58 59 61 61 62 62 64 64 68 69 66 65 66 68 68 68 69 69 69 70 71 65 63 62 61 62
62 62 61 60 60 59 59 61 61 59 60 57 55 54 54 54 56 59 59 60 60 61 62 62 62 61 61 61 60 60 59 58 58 56 56 56 58 58 58 57 56 56 56 56 56 55 55 54 53 53 54 54 55 54 54 54 57 57 57 57 58 61 62 61 62 63 64 65 68 67 66 65 67 68 68 68 69 69 70 71 71 64 62 61 61
61 61 60 59 59 60 60 60 60 58 58 58 55 53 53 54 57 59 59 60 59 60 61 62 62 62 62 65 64 62 60 59 57 55 55 56 57 57 55 55 56 56 56 57 57 57 55 54 54 54 54 55 55 55 55 55 55 55 57 56 56 58 59 61 61 62 63 64 66 68 66 65 66 68 67 67 67 68 69 70 71 70 63 61 61
61 61 61 59 58 59 59 59 61 58 59 59 55 54 54 54 57 59 60 60 59 60 60 61 61 61 61 63 63 61 61 59 56 53 52 52 54 54 55 56 56 56 56 56 56 56 56 56 56 56 57 56 58 59 60 57 56 56 56 56 56 56 56 60 62 62 62 63 65 68 65 65 65 67 67 63 64 66 68 69 69 71 69 67 66